Waarnemingen

Advertentie
Mijn weer
Blois, Frankrijk (7245): temperatuur & dauwpunt: 11.02.2019 13:00:00 - 17.02.2019 13:00:00 (CET)Blois, Frankrijk (7245): temperatuur 5cm: 11.02.2019 13:00:00 - 17.02.2019 13:00:00 (CET)Blois, Frankrijk (7245): temperatuur -20cm & temperatuur -100cm: 11.02.2019 13:00:00 - 17.02.2019 13:00:00 (CET)Blois, Frankrijk (7245): windsnelheid & windstoten: 11.02.2019 13:00:00 - 17.02.2019 13:00:00 (CET)Blois, Frankrijk (7245): windrichting: 11.02.2019 13:00:00 - 17.02.2019 13:00:00 (CET)Blois, Frankrijk (7245): luchtdruk: 11.02.2019 13:00:00 - 17.02.2019 13:00:00 (CET)Blois, Frankrijk (7245): zicht: 11.02.2019 13:00:00 - 17.02.2019 13:00:00 (CET)Blois, Frankrijk (7245): Zonneschijnduur: 11.02.2019 13:00:00 - 17.02.2019 13:00:00 (CET)Blois, Frankrijk (7245): neerslag: 11.02.2019 13:00:00 - 17.02.2019 13:00:00 (CET)
Datum & Tijd tt [°C] td [°C] tt 5cm [°C] tt -20cm [°C] tt -100cm [°C] ff [km/u] ff [kn] fx [km/u] fx [kn] dd ppp [hPa] vv [km] sd [min] rr [mm]
17.02.2019 13:00:00 - - - - - - - - - - - - - -
17.02.2019 12:00:00 14,5 0,3 14,2 5,2 7,3 24 13 32 17 ZZW 1020,7 20 60 0,0
17.02.2019 11:00:00 10,9 -1,5 12,2 5,2 7,2 16 9 28 15 Z 1021,1 20 60 0,0
17.02.2019 10:00:00 9,0 -2,0 5,2 5,4 7,3 13 7 23 12 Z 1021,4 20 58 0,0
17.02.2019 09:00:00 3,4 -0,1 0,4 5,4 7,2 13 7 14 8 OZO 1021,6 20 35 0,0
17.02.2019 08:00:00 1,4 -1,2 -0,4 5,5 7,2 8 4 12 7 OZO 1021,6 20 0 0,0
17.02.2019 07:00:00 1,6 -1,0 0,2 5,6 7,2 11 6 13 7 O 1021,6 20 0 0,0
17.02.2019 06:00:00 2,6 -0,7 0,0 5,7 7,2 11 6 12 7 O 1021,7 20 0 0,0
17.02.2019 05:00:00 4,3 -0,7 0,4 5,8 7,2 8 4 11 6 O 1021,7 20 0 0,0
17.02.2019 04:00:00 4,6 -0,4 1,2 5,9 7,2 8 4 12 7 O 1022,0 20 0 0,0
17.02.2019 03:00:00 4,8 0,0 1,8 6,0 7,2 8 4 10 5 O 1022,5 20 0 0,0
17.02.2019 02:00:00 4,8 0,6 2,7 6,0 7,2 9 5 14 7 O 1022,5 18 0 0,0
17.02.2019 01:00:00 5,8 0,7 3,4 6,1 7,2 8 5 13 7 O 1023,0 17 0 0,0
17.02.2019 00:00:00 7,2 1,1 3,6 6,2 7,2 10 5 13 7 O 1023,4 19 0 0,0
16.02.2019 23:00:00 6,2 1,7 3,6 6,2 7,2 11 6 16 8 ZO 1024,0 8 0 0,0
16.02.2019 22:00:00 7,2 2,1 4,2 6,3 7,2 12 6 18 10 ZO 1024,2 8 0 0,0
16.02.2019 21:00:00 7,8 2,7 4,3 6,3 7,2 12 6 16 8 ZZO 1024,5 11 0 0,0
16.02.2019 20:00:00 8,6 3,4 5,9 6,2 7,3 11 6 14 7 ZZO 1024,5 16 0 0,0
16.02.2019 19:00:00 9,3 5,3 6,9 6,1 7,2 11 6 12 6 ZO 1024,6 11 0 0,0
16.02.2019 18:00:00 12,7 6,1 10,5 5,9 7,2 6 3 10 6 ZZO 1024,5 20 20 0,0
16.02.2019 17:00:00 15,5 6,2 17,2 5,7 7,3 6 3 12 7 Z 1024,8 20 52 0,0
16.02.2019 16:00:00 16,2 4,6 18,3 5,4 7,3 8 5 14 8 ZZW 1025,1 20 60 0,0
16.02.2019 15:00:00 15,7 5,6 18,3 5,2 7,2 9 5 16 9 ZZW 1025,7 20 60 0,0
16.02.2019 14:00:00 14,8 6,1 18,1 5,0 7,2 11 6 16 9 ZZW 1026,6 20 60 0,0
16.02.2019 13:00:00 12,9 5,8 14,5 4,8 7,3 7 4 17 9 ZZW 1027,4 20 60 0,0
16.02.2019 12:00:00 11,0 5,3 13,4 4,8 7,3 11 6 14 8 ZZW 1027,9 20 60 0,0
16.02.2019 11:00:00 8,9 3,7 8,9 4,9 7,3 6 3 13 7 ZZW 1028,0 20 60 0,0
16.02.2019 10:00:00 4,4 2,3 3,3 4,9 7,2 6 3 9 5 ZO 1028,1 9 60 0,0
16.02.2019 09:00:00 1,8 0,2 -1,9 5,0 7,2 6 3 8 4 O 1028,2 7 29 0,0
16.02.2019 08:00:00 -0,3 -1,0 -3,2 5,1 7,2 5 3 6 3 OZO 1027,7 9 0 0,0
16.02.2019 07:00:00 0,3 -0,6 -1,6 5,2 7,2 5 3 9 5 OZO 1027,5 10 0 0,0
16.02.2019 06:00:00 0,1 -0,6 -3,2 5,4 7,2 7 4 8 4 OZO 1027,5 10 0 0,0
16.02.2019 05:00:00 0,8 0,2 -2,9 5,5 7,2 0 0 5 3 N 1027,4 15 0 0,0
16.02.2019 04:00:00 1,2 0,5 -2,8 5,7 7,3 6 3 7 4 OZO 1027,5 13 0 0,0
16.02.2019 03:00:00 0,8 -0,2 -2,0 5,7 7,3 0 0 5 3 N 1027,9 15 0 0,0
16.02.2019 02:00:00 1,7 0,4 -2,1 5,9 7,3 0 0 0 0 N 1027,9 19 0 0,0
16.02.2019 01:00:00 1,8 0,6 -1,9 6,0 7,3 0 0 4 2 N 1027,9 17 0 0,0
16.02.2019 00:00:00 2,5 0,6 -1,1 6,0 7,2 0 0 5 3 N 1027,5 20 0 0,0
15.02.2019 23:00:00 3,4 0,4 -0,8 6,1 7,3 0 0 0 0 N 1027,5 20 0 0,0
15.02.2019 22:00:00 4,5 1,7 0,1 6,2 7,3 0 0 0 0 N 1027,4 20 0 0,0
15.02.2019 21:00:00 5,7 2,5 1,3 6,2 7,3 0 0 3 2 N 1027,5 20 0 0,0
15.02.2019 20:00:00 7,0 2,5 2,5 6,2 7,3 0 0 6 3 N 1027,5 20 0 0,0
15.02.2019 19:00:00 9,2 2,1 4,1 6,1 7,3 4 2 7 4 NNO 1027,3 20 0 0,0
15.02.2019 18:00:00 13,3 3,4 11,4 5,9 7,2 5 3 8 5 NO 1026,8 20 51 0,0
15.02.2019 17:00:00 15,6 1,3 18,8 5,7 7,3 5 3 9 5 NO 1026,9 20 60 0,0
15.02.2019 16:00:00 15,7 1,4 18,2 5,4 7,3 6 4 11 6 ONO 1027,1 20 60 0,0
15.02.2019 15:00:00 14,8 3,3 18,7 5,2 7,3 6 4 13 7 O 1027,4 20 60 0,0
15.02.2019 14:00:00 13,6 3,6 17,3 5,0 7,3 7 4 11 6 O 1028,1 19 60 0,0
15.02.2019 13:00:00 11,9 4,6 14,6 4,9 7,3 6 3 10 5 O 1029,1 19 60 0,0
15.02.2019 12:00:00 11,0 4,4 11,3 4,9 7,3 0 0 8 5 N 1029,7 16 60 0,0
15.02.2019 11:00:00 6,1 2,9 7,4 4,9 7,3 6 3 15 8 O 1030,1 11 60 0,0
15.02.2019 10:00:00 3,6 1,5 4,6 5,0 7,3 10 6 13 7 O 1030,1 8 60 0,0
15.02.2019 09:00:00 2,4 0,5 -1,2 5,1 7,3 9 5 13 7 O 1030,2 9 27 0,0
15.02.2019 08:00:00 0,8 -0,7 -1,2 5,2 7,3 6 3 12 6 O 1029,9 9 0 0,0
15.02.2019 07:00:00 0,3 -0,7 -1,2 5,3 7,3 10 5 12 7 O 1030,0 9 0 0,0
15.02.2019 06:00:00 2,0 0,4 -2,2 5,4 7,3 10 5 12 6 O 1029,7 15 0 0,0
15.02.2019 05:00:00 1,3 -0,5 -1,4 5,5 7,3 6 3 11 6 O 1029,6 14 0 0,0
15.02.2019 04:00:00 2,3 0,2 -0,8 5,6 7,3 7 4 16 8 OZO 1029,7 13 0 0,0
15.02.2019 03:00:00 2,6 1,1 -0,4 5,7 7,3 9 5 14 8 O 1029,9 13 0 0,0
15.02.2019 02:00:00 2,7 1,2 0,4 5,8 7,3 12 7 16 8 O 1030,2 9 0 0,0
15.02.2019 01:00:00 2,7 1,4 -0,6 5,9 7,3 6 3 13 7 O 1030,3 9 0 0,0
15.02.2019 00:00:00 3,5 1,7 0,3 6,0 7,3 5 3 11 6 ONO 1030,2 16 0 0,0
14.02.2019 23:00:00 4,5 1,7 2,1 6,0 7,3 8 4 16 9 ONO 1030,5 13 0 0,0
14.02.2019 22:00:00 6,0 3,5 -0,3 6,1 7,3 9 5 14 7 NO 1030,4 16 0 0,0
14.02.2019 21:00:00 4,0 3,0 1,2 6,1 7,3 0 0 10 5 N 1030,7 9 0 0,0
14.02.2019 20:00:00 6,6 4,6 1,9 6,1 7,3 7 4 8 5 NNO 1030,5 18 0 0,0
14.02.2019 19:00:00 8,5 3,7 3,4 5,9 7,2 3 2 5 3 NNW 1030,3 20 0 0,0
14.02.2019 18:00:00 11,7 3,9 9,5 5,8 7,3 3 1 9 5 NNO 1030,1 20 51 0,0
14.02.2019 17:00:00 12,7 2,8 15,9 5,6 7,3 6 3 14 8 ONO 1030,3 20 60 0,0
14.02.2019 16:00:00 12,7 4,1 16,2 5,4 7,3 10 6 14 8 O 1030,9 4,2 60 0,0
14.02.2019 15:00:00 12,4 4,1 16,1 5,2 7,3 9 5 14 7 O 1031,6 20 60 0,0
14.02.2019 14:00:00 11,4 3,2 14,4 5,0 7,3 8 4 13 7 O 1032,5 20 60 0,0
14.02.2019 13:00:00 9,5 4,1 11,4 4,9 7,3 7 4 11 6 O 1033,3 18 60 0,0
14.02.2019 12:00:00 7,4 4,0 10,2 4,9 7,3 6 4 10 5 O 1033,9 14 60 0,0
14.02.2019 11:00:00 4,8 2,3 5,8 4,9 7,3 4 2 12 6 O 1033,9 9 60 0,0
14.02.2019 10:00:00 2,1 0,0 2,4 5,0 7,3 8 4 13 7 O 1034,2 8 60 0,0
14.02.2019 09:00:00 0,8 -0,2 -1,3 5,1 7,3 9 5 11 6 O 1034,2 6 25 0,0
14.02.2019 08:00:00 -0,2 -0,6 -1,2 5,2 7,3 10 5 11 6 O 1033,7 4,2 0 0,0
14.02.2019 07:00:00 -0,2 -0,6 -1,7 5,3 7,3 9 5 14 8 O 1033,3 3,2 0 0,0
14.02.2019 06:00:00 -0,4 -0,7 -1,8 5,4 7,3 6 3 10 6 O 1033,5 2,0 0 0,0
14.02.2019 05:00:00 0,6 0,0 -0,6 5,6 7,3 9 5 16 8 O 1033,4 3,7 0 0,0
14.02.2019 04:00:00 1,0 0,4 0,1 5,6 7,3 13 7 19 10 O 1033,2 4,3 0 0,0
14.02.2019 03:00:00 1,4 0,8 -1,3 5,7 7,3 9 5 15 8 ONO 1033,6 6 0 0,0
14.02.2019 02:00:00 0,6 0,3 -1,4 5,8 7,3 5 3 8 5 O 1033,8 3,1 0 0,0
14.02.2019 01:00:00 1,2 0,5 -0,8 5,9 7,3 5 3 11 6 O 1034,1 3,8 0 0,0
14.02.2019 00:00:00 3,0 1,7 1,4 5,9 7,3 6 3 18 10 ONO 1033,9 12 0 0,0
13.02.2019 23:00:00 3,6 2,0 2,2 6,0 7,3 10 5 15 8 NO 1034,0 15 0 0,0
13.02.2019 22:00:00 4,4 2,1 2,0 6,0 7,3 5 3 16 9 ONO 1033,6 20 0 0,0
13.02.2019 21:00:00 5,7 2,3 4,2 6,0 7,3 10 5 19 10 ONO 1033,5 20 0 0,0
13.02.2019 20:00:00 5,8 3,1 4,5 6,0 7,3 11 6 21 11 NO 1033,5 20 0 0,0
13.02.2019 19:00:00 7,1 4,1 5,5 5,9 7,3 12 6 26 14 NNO 1033,3 20 0 0,0
13.02.2019 18:00:00 8,3 4,5 7,4 5,8 7,3 14 7 25 13 NNO 1032,8 20 47 0,0
13.02.2019 17:00:00 10,2 4,3 12,8 5,6 7,3 12 6 22 12 NO 1033,0 20 60 0,0
13.02.2019 16:00:00 10,6 2,4 13,5 5,5 7,3 13 7 23 12 NO 1033,2 20 60 0,0
13.02.2019 15:00:00 9,7 2,3 12,2 5,3 7,3 13 7 23 12 ONO 1033,5 20 60 0,0
13.02.2019 14:00:00 8,5 3,5 11,7 5,2 7,3 13 7 22 12 ONO 1034,1 20 60 0,0
13.02.2019 13:00:00 7,1 1,6 8,3 5,1 7,3 13 7 19 11 ONO 1035,1 20 60 0,0
13.02.2019 12:00:00 3,1 2,7 5,4 5,1 7,3 6 3 10 6 NO 1036,2 8 42 0,0
13.02.2019 11:00:00 1,6 - 0,5 5,1 7,3 5 3 8 5 N - 1,3 28 0,0
13.02.2019 10:00:00 -0,8 - -0,9 5,2 7,3 5 3 8 4 O - 0,2 33 0,0
13.02.2019 09:00:00 -1,6 - -1,2 5,3 7,3 5 3 14 7 O - 0,1 5 0,0
13.02.2019 08:00:00 -1,0 - -1,0 5,4 7,3 10 5 14 7 O - 0,1 0 0,0
13.02.2019 07:00:00 0,2 - -0,8 5,5 7,3 9 5 14 8 ONO - 0,5 0 0,0
13.02.2019 06:00:00 0,7 - -1,0 5,6 7,3 10 5 14 8 ONO - 3,7 0 0,0
13.02.2019 05:00:00 0,9 - -1,0 5,7 7,3 10 5 13 7 ONO - 6 0 0,0
13.02.2019 04:00:00 1,1 - -1,9 5,9 7,3 7 4 10 5 ONO - 10 0 0,0
13.02.2019 03:00:00 0,6 - -2,7 6,0 7,3 5 3 8 4 O - 12 0 0,0
13.02.2019 02:00:00 0,7 - -2,3 6,0 7,3 3 2 7 4 O - 13 0 0,0
13.02.2019 01:00:00 1,8 - -0,3 6,2 7,3 5 3 9 5 O - 20 0 0,0
13.02.2019 00:00:00 1,8 - -0,2 6,3 7,3 7 4 10 5 O - 14 0 0,0
12.02.2019 23:00:00 2,0 - 0,8 6,3 7,3 7 4 10 6 O - 18 0 0,0
12.02.2019 22:00:00 2,8 - 1,7 6,4 7,3 8 5 16 9 O - 14 0 0,0
12.02.2019 21:00:00 4,8 - 3,7 6,3 7,2 11 6 18 10 ONO - 20 0 0,0
12.02.2019 20:00:00 5,5 - 4,0 6,4 7,3 10 6 16 9 ONO - 20 0 0,0
12.02.2019 19:00:00 6,6 - 3,1 6,3 7,3 7 4 11 6 NO - 20 0 0,0
12.02.2019 18:00:00 8,2 - 7,9 6,1 7,3 5 3 13 7 ONO - 20 48 0,0
12.02.2019 17:00:00 9,5 - 12,2 6,0 7,3 7 4 11 6 NNO - 20 60 0,0
12.02.2019 16:00:00 10,0 - 14,1 5,8 7,3 4 2 11 6 NNW - 20 60 0,0
12.02.2019 15:00:00 9,5 - 13,8 5,5 7,2 5 3 10 5 WNW - 20 58 0,0
12.02.2019 14:00:00 9,3 - 10,8 5,4 7,2 4 2 10 5 W - 20 47 0,0
12.02.2019 13:00:00 9,2 - 11,9 5,4 7,3 2 1 8 4 ZZW - 20 60 0,0
12.02.2019 12:00:00 7,2 - 10,9 5,3 7,3 4 2 7 4 OZO - 20 60 0,0
12.02.2019 11:00:00 5,6 - 6,8 5,5 7,3 0 0 5 3 N - 19 60 0,0
12.02.2019 10:00:00 1,4 - -0,6 5,5 7,2 0 0 4 2 N - 6 25 0,0
12.02.2019 09:00:00 -0,7 - -3,8 5,7 7,2 0 0 3 2 N - 8 19 0,0
12.02.2019 08:00:00 -0,9 - -4,0 5,8 7,2 2 1 5 3 N - 4,4 0 0,0
12.02.2019 07:00:00 -1,1 - -3,7 5,9 7,2 2 1 4 2 NW - 2,5 0 0,0
12.02.2019 06:00:00 -0,6 - -3,5 6,0 7,2 0 0 4 2 N - 2,7 0 0,0
12.02.2019 05:00:00 -0,2 - -3,2 6,2 7,2 4 2 4 2 N - 8 0 0,0
12.02.2019 04:00:00 -0,2 - -3,2 6,3 7,2 0 0 4 2 N - 2,5 0 0,0
12.02.2019 03:00:00 0,8 - -2,3 6,4 7,2 3 2 6 4 NW - 9 0 0,0
12.02.2019 02:00:00 1,7 - -1,8 6,5 7,2 0 0 4 2 N - 7 0 0,0
12.02.2019 01:00:00 1,9 - -0,3 6,6 7,2 0 0 7 4 N - 20 0 0,0
12.02.2019 00:00:00 3,9 - 0,9 6,6 7,2 6 3 8 5 N - 20 0 0,0
11.02.2019 23:00:00 5,1 - 3,0 6,6 7,2 3 2 13 7 NNO - 20 0 0,0
11.02.2019 22:00:00 5,7 - 4,9 6,7 7,2 7 4 16 9 NW - 20 0 0,0
11.02.2019 21:00:00 6,2 - 5,7 6,7 7,2 10 5 19 11 NW - 20 0 0,0
11.02.2019 20:00:00 6,9 - 6,3 6,6 7,2 13 7 17 9 NW - 20 0 0,0
11.02.2019 19:00:00 7,5 - 6,3 6,6 7,2 10 5 16 9 NW - 20 0 0,0
11.02.2019 18:00:00 7,3 - 6,7 6,5 7,2 9 5 19 10 WNW - 20 21 0,0
11.02.2019 17:00:00 8,7 - 8,3 6,4 7,2 14 8 22 12 NW - 20 17 0,0
11.02.2019 16:00:00 8,7 - 8,7 6,3 7,2 17 9 29 16 WNW - 20 3 0,0
11.02.2019 15:00:00 8,6 - 9,5 6,1 7,1 22 12 35 19 WNW - 20 9 0,0
11.02.2019 14:00:00 8,8 - 10,0 6,0 7,1 22 12 31 17 WNW - 20 31 0,0
11.02.2019 13:00:00 8,4 - 8,3 6,0 7,1 28 15 39 21 NW - 20 36 0,0

tt = temperatuur
td = dauwpunt
tt 5cm = temperatuur 5cm
tt -20cm = temperatuur -20cm
tt -100cm = temperatuur -100cm
ff = windsnelheid
fx = windstoten
dd = windrichting
ppp = luchtdruk
vv = zicht
sd = Zonneschijnduur
rr = neerslag

Weerstations in de omgeving